FENGYUN 1C DEB, 29977

Orbit data source: Space-Track

FENGYUN 1C DEB, 29977 is space debris in SSO originally from a launch on Mon, 10 May 1999 UTC launched from the Taiyaun Space Center, China (TSC). Fengyun 1C debris stems from the Chinese weather satellite Fengyun-1C, which was intentionally destroyed by a Chinese anti-satellite missile in 2007. This event dramatically increased the amount of space debris, with thousands of trackable fragments posing hazards to satellites and human spaceflight. The Fengyun 1C debris cloud has become a focal point in discussions about space sustainability and the need for international regulations to prevent the creation of new debris.

Loading next visibility...
Identifier
29977, 1999-025LB
Orbit
SSO
Country
Flag of CNCN / PRC
Related business
Manufacturer
Unknown
Mission
Spacecraft
Bus & Motor
Unknown
Mass
Unknown
Launch date (UTC)
1999-05-10 (27 years ago)
Launch vehicle
Unknown
Launch site
Taiyaun Space Center, China (TSC)
Object type
Payload
Rocket body
Debris
Shape & HBR
Unknown shape, 0.1 m
Radar Cross Section
Small (<0.1 m²)

Expand to show TLE details & history
Last TLE update: 8 hours ago

TLE from 8 hours ago
0 FENGYUN 1C DEB
1 29977U 99025LB  26071.56591405  .00001546  00000-0  90679-3 0  9990
2 29977  98.3941 292.0308 0128667   1.9927  27.1030 14.05466013976221
Epoch: 2026-03-12T13:34Z
TLE epoch observation values (Epoch: 2026-03-12T13:34:54.973Z)
Latitude
29.47654°
Longitude
-86.67109°
Altitude
795.752 km
Speed
7.501 km/s
True Right ascension
19h 09m 05s
True Declination
29° 19' 49"
Sunlit
Object was in daylight at epoch
Visualization orbit readout
Latitude
Unknown
Longitude
Unknown
Altitude
Unknown
Speed
Unknown
Apparent Right ascension
Unknown
Apparent Declination
Unknown
Sunlit
N/A
Visualization observer readout
Local Sidereal Time
02:25:16
Azimuth
Unknown
Elevation
Unknown
Doppler factor
Unknown
Orbital elements
Apogee altitude
965.378 km
Perigee altitude
778.805 km
Semi-major axis
7,250.228 km
Eccentricity
0.01287
Inclination
98.3941°
RAAN
292.0308°
Arg. of periapsis
1.9927°
True anomaly
27.78447°
Mean anomaly
27.103°
Eccentric anomaly
27.44275°
Mean motion
3.51573 °/min
Orbital period
102.4 mins
BSTAR
0.00090679
Loading maneuver chart data...
Computing Atmospheric mass density...

Documentation

Showing up to 5 results
|